FW9516 Weather Reports


Display with metric or nautical units.
time (UTC)temp
F
wind
direction
speed
MPH
gust
MPH
rain 1hr
in
rain 24hr
in
rain mn
in
humidity
%
barometer
mb
20260503201531 79 360 3.0 9.0 0.00 0.00 0.00 46 1012.1
20260503200029 77 273 3.0 12.0 0.00 0.00 0.00 48 1012.3
20260503194531 77 0 2.0 9.0 0.00 0.00 0.00 48 1012.6
20260503193039 76 295 3.0 9.0 0.00 0.00 0.00 50 1012.8
20260503191528 76 281 4.0 9.0 0.00 0.00 0.00 49 1013.0
20260503190031 77 355 3.0 8.0 0.00 0.00 0.00 48 1013.1
20260503184533 76 0 2.0 9.0 0.00 0.00 0.00 51 1013.1
20260503183030 75 350 1.0 6.0 0.00 0.00 0.00 51 1013.3
20260503181528 73 252 2.0 7.0 0.00 0.00 0.00 54 1013.5
20260503180030 72 276 2.0 7.0 0.00 0.00 0.00 57 1013.6
20260503174533 71 333 2.0 6.0 0.00 0.00 0.00 56 1013.6
20260503173028 72 336 1.0 5.0 0.00 0.00 0.00 56 1013.6
20260503171530 71 61 1.0 8.0 0.00 0.00 0.00 55 1013.7
20260503081531 52 0 0.0 1.0 0.00 0.00 0.00 85 1014.4
20260503071533 54 0 0.0 0.0 0.00 0.00 0.00 83 1014.5
20260503054537 57 0 0.0 1.0 0.00 0.00 0.00 77 1014.2
20260503053028 58 0 0.0 0.0 0.00 0.00 0.00 76 1014.4
20260503051531 58 0 0.0 0.0 0.00 0.00 0.00 75 1014.3
20260503050028 59 0 0.0 0.0 0.00 0.00 0.00 74 1014.3
20260503044536 60 0 0.0 0.0 0.00 0.00 0.00 72 1014.3
20260503043029 61 0 0.0 0.0 0.00 0.00 0.00 70 1014.0
20260503041530 62 0 0.0 0.0 0.00 0.00 0.00 68 1013.8
20260503040030 63 0 0.0 0.0 0.00 0.00 0.00 65 1013.6
20260503034528 65 0 0.0 1.0 0.00 0.00 0.00 62 1013.3
20260503033030 66 0 0.0 1.0 0.00 0.00 0.00 59 1013.0
20260503031530 68 0 0.0 2.0 0.00 0.00 0.00 56 1013.0
20260503030029 70 283 0.0 2.0 0.00 0.00 0.00 53 1012.7
20260503024530 72 327 1.0 4.0 0.00 0.00 0.00 50 1012.7
20260503023030 73 40 1.0 4.0 0.00 0.00 0.00 50 1012.6
20260503021529 73 0 1.0 7.0 0.00 0.00 0.00 50 1012.5
20260503020027 75 53 2.0 5.0 0.00 0.00 0.00 48 1012.6
20260503014528 75 9 1.0 4.0 0.00 0.00 0.00 48 1012.4
20260503013036 75 355 1.0 7.0 0.00 0.00 0.00 49 1012.6
20260503011534 74 30 1.0 9.0 0.00 0.00 0.00 50 1012.8
20260503010028 75 15 3.0 7.0 0.00 0.00 0.00 48 1012.7
20260503004531 75 325 2.0 7.0 0.00 0.00 0.00 47 1012.7
20260503003027 76 344 1.0 8.0 0.00 0.00 0.00 48 1012.9
20260503001530 76 5 2.0 7.0 0.00 0.00 0.00 49 1013.0
20260503000028 75 0 2.0 9.0 0.00 0.00 0.00 51 1013.1
20260502234527 74 0 4.0 9.0 0.00 0.00 0.00 53 1013.2
20260502233029 74 352 4.0 10.0 0.00 0.00 0.00 54 1013.4
20260502231529 74 303 5.0 10.0 0.00 0.00 0.00 52 1013.5
20260502230028 75 15 4.0 9.0 0.00 0.00 0.00 53 1013.6
20260502224527 74 314 3.0 10.0 0.00 0.00 0.00 51 1014.0
20260502223029 73 301 2.0 9.0 0.00 0.00 0.00 54 1014.2
20260502221528 73 294 3.0 9.0 0.00 0.00 0.00 56 1014.3
20260502220029 73 320 3.0 12.0 0.00 0.00 0.00 57 1014.4
20260502214536 73 355 2.0 9.0 0.00 0.00 0.00 56 1014.5
20260502213031 71 351 3.0 9.0 0.00 0.00 0.00 58 1014.8
20260502211529 72 32 2.0 8.0 0.00 0.00 0.00 56 1014.8
20260502210031 71 271 4.0 9.0 0.00 0.00 0.00 57 1015.0
20260502204528 72 58 3.0 8.0 0.00 0.00 0.00 58 1015.1
20260502203027 69 315 3.0 10.0 0.00 0.00 0.00 62 1015.1